Weyers Cave, VA

10:20 AM EDT on September 27, 2016 (GMT -0400)
Shenandoah Valley Regional

Weather History for KSHD - February, 2013

Change the Weather History Date:

Friday, February 15, 2013

  Actual Average Record
Temperature  
Mean Temperature 41 °F -  
Max Temperature 59 °F 47 °F 66 °F (2001)
Min Temperature 24 °F 27 °F 6 °F (2015)
Degree Days  
Heating Degree Days 24    
Moisture  
Dew Point 29 °F    
Average Humidity 71    
Maximum Humidity 94    
Minimum Humidity 33    
Precipitation  
Precipitation 0.05 in - - ()
Sea Level Pressure  
Sea Level Pressure 29.98 in    
Wind  
Wind Speed 3 mph (WSW)    
Max Wind Speed 15 mph    
Max Gust Speed 23 mph    
Visibility 10 miles    
Events Rain    
Averages and records for this station are not official NWS values.
T = Trace of Precipitation, MM = Missing Value Source: NWS Daily Summary

Daily Weather History Graph

Daily Weather History Graph

Search for Another Location

Airport or City:

Trip Planner

Search our weather history database for the weather conditions in past years. The results will help you decide how hot, cold, wet, or windy it might be!

Date:

Astronomy

Feb. 15, 2013 Rise Set
Actual Time 7:05 AM EST 5:54 PM EST
Civil Twilight 6:38 AM EST 6:21 PM EST
Nautical Twilight 6:07 AM EST 6:52 PM EST
Astronomical Twilight 5:37 AM EST 7:22 PM EST
Moon 9:46 AM EST (2/15) 11:47 PM EST (2/15)
Length of Visible Light 11h 42m
Length of Day
10h 48m
Waxing Crescent, 30% of the Moon is Illuminated
Feb 15
Waxing Crescent
Feb 17
First Quarter
Feb 25
Full
Mar 4
Last Quarter
Mar 11
New

Hourly Weather History & Observations

Time (EST) Temp. Windchill Dew Point Humidity Pressure Visibility Wind Dir Wind Speed Gust Speed Precip Events Conditions
12:15 AM 27.9 °F - 23.0 °F 82% 29.99 in 10.0 mi Calm Calm - N/A   Clear
12:35 AM 30.4 °F - 24.3 °F 78% 29.99 in 10.0 mi Calm Calm - N/A   Clear
12:55 AM 28.6 °F - 22.8 °F 79% 29.99 in 10.0 mi Calm Calm - N/A   Clear
1:15 AM 30.2 °F 26.7 °F 25.2 °F 82% 29.98 in 10.0 mi SSE 3.5 mph - N/A   Clear
1:35 AM 30.2 °F - 24.1 °F 78% 29.98 in 10.0 mi Calm Calm - N/A   Clear
1:55 AM 27.0 °F - 22.3 °F 83% 29.98 in 10.0 mi Calm Calm - N/A   Clear
2:15 AM 27.3 °F - 23.2 °F 84% 29.99 in 10.0 mi Calm Calm - N/A   Clear
2:35 AM 27.0 °F - 22.5 °F 83% 29.99 in 10.0 mi Calm Calm - N/A   Clear
2:55 AM 27.0 °F - 23.0 °F 85% 30.00 in 10.0 mi Calm Calm - N/A   Clear
3:15 AM 26.8 °F - 22.5 °F 84% 30.00 in 10.0 mi Calm Calm - N/A   Clear
3:35 AM 27.1 °F - 22.8 °F 84% 30.00 in 10.0 mi Calm Calm - N/A   Clear
3:55 AM 28.2 °F - 22.6 °F 80% 30.00 in 10.0 mi Calm Calm - N/A   Clear
4:15 AM 28.0 °F - 23.5 °F 83% 30.00 in 10.0 mi Calm Calm - N/A   Clear
4:35 AM 27.9 °F - 22.5 °F 80% 30.00 in 10.0 mi Calm Calm - N/A   Clear
4:55 AM 25.3 °F - 21.0 °F 84% 30.00 in 10.0 mi Calm Calm - N/A   Clear
5:15 AM 25.9 °F - 22.1 °F 86% 30.00 in 10.0 mi Calm Calm - N/A   Clear
5:35 AM 27.3 °F - 22.8 °F 83% 30.01 in 10.0 mi Calm Calm - N/A   Clear
5:55 AM 24.6 °F - 20.5 °F 84% 30.01 in 10.0 mi Calm Calm - N/A   Clear
6:15 AM 25.7 °F - 21.4 °F 84% 30.02 in 10.0 mi Calm Calm - N/A   Clear
6:35 AM 26.1 °F - 21.6 °F 83% 30.02 in 10.0 mi Calm Calm - N/A   Clear
6:55 AM 25.3 °F - 20.5 °F 82% 30.02 in 10.0 mi Calm Calm - N/A   Clear
7:15 AM 25.0 °F - 21.9 °F 88% 30.02 in 10.0 mi Calm Calm - N/A   Clear
7:35 AM 25.7 °F - 21.9 °F 86% 30.02 in 10.0 mi Calm Calm - N/A   Clear
7:55 AM 26.8 °F - 23.0 °F 86% 30.03 in 10.0 mi Calm Calm - N/A   Clear
8:15 AM 30.7 °F - 26.8 °F 85% 30.04 in 10.0 mi Calm Calm - N/A   Clear
8:35 AM 34.7 °F - 29.3 °F 81% 30.05 in 10.0 mi Calm Calm - N/A   Clear
10:55 AM 52.2 °F - 32.4 °F 47% 30.01 in 10.0 mi South 5.8 mph - N/A   Clear
11:15 AM 52.0 °F - 32.2 °F 47% 30.01 in 10.0 mi SE 6.9 mph - N/A   Scattered Clouds
11:35 AM 54.0 °F - 31.5 °F 42% 29.99 in 10.0 mi SW 8.1 mph - N/A   Scattered Clouds
11:55 AM 54.9 °F - 31.1 °F 40% 29.99 in 10.0 mi SSW 9.2 mph 16.1 mph N/A   Clear
12:15 PM 55.4 °F - 30.4 °F 38% 29.98 in 10.0 mi SW 15.0 mph 19.6 mph N/A   Clear
12:55 PM 56.7 °F - 29.8 °F 36% 29.95 in 10.0 mi SSW 12.7 mph 19.6 mph N/A   Mostly Cloudy
1:15 PM 57.6 °F - 30.7 °F 36% 29.94 in 10.0 mi SW 9.2 mph 17.3 mph N/A   Mostly Cloudy
1:35 PM 56.5 °F - 29.8 °F 36% 29.94 in 10.0 mi SW 9.2 mph 17.3 mph N/A   Mostly Cloudy
1:55 PM 55.9 °F - 30.2 °F 37% 29.93 in 10.0 mi SW 8.1 mph 16.1 mph N/A   Mostly Cloudy
2:15 PM 56.3 °F - 29.5 °F 36% 29.92 in 10.0 mi SSW 12.7 mph 20.7 mph N/A   Overcast
2:35 PM 56.7 °F - 30.0 °F 36% 29.92 in 10.0 mi SSW 8.1 mph 18.4 mph N/A   Overcast
2:55 PM 58.1 °F - 29.3 °F 33% 29.91 in 10.0 mi SSW 11.5 mph 18.4 mph N/A   Overcast
3:15 PM 58.3 °F - 29.1 °F 33% 29.90 in 10.0 mi WSW 10.4 mph - N/A   Mostly Cloudy
3:35 PM 56.7 °F - 29.7 °F 36% 29.89 in 10.0 mi SW 6.9 mph - N/A   Overcast
3:55 PM 56.8 °F - 29.5 °F 35% 29.89 in 10.0 mi SW 12.7 mph - N/A   Overcast
4:15 PM 56.3 °F - 29.3 °F 36% 29.89 in 10.0 mi SW 9.2 mph - N/A   Overcast
4:35 PM 55.0 °F - 30.4 °F 39% 29.89 in 10.0 mi SW 12.7 mph 23.0 mph N/A   Overcast
4:55 PM 54.1 °F - 31.3 °F 42% 29.89 in 10.0 mi WSW 6.9 mph - N/A   Overcast
5:15 PM 53.8 °F - 31.6 °F 43% 29.90 in 10.0 mi West 5.8 mph - N/A   Overcast
5:35 PM 52.0 °F - 34.5 °F 51% 29.92 in 10.0 mi North 8.1 mph 17.3 mph N/A   Overcast
5:55 PM 46.6 °F - 38.3 °F 73% 29.94 in 10.0 mi North 11.5 mph 18.4 mph N/A   Light Drizzle
6:15 PM 44.2 °F 39.7 °F 38.3 °F 80% 29.95 in 10.0 mi NNW 8.1 mph - N/A   Overcast
6:35 PM 42.8 °F 37.5 °F 37.9 °F 83% 29.97 in 10.0 mi North 9.2 mph - N/A Rain Light Rain
6:55 PM 41.9 °F 35.9 °F 37.6 °F 85% 29.98 in 10.0 mi NNE 10.4 mph - N/A Rain Rain
7:15 PM 40.6 °F 35.4 °F 36.7 °F 86% 29.99 in 10.0 mi NNE 8.1 mph - 0.01 in Rain Rain
7:35 PM 39.7 °F 33.7 °F 36.5 °F 88% 30.00 in 10.0 mi NE 9.2 mph - 0.02 in   Drizzle
7:55 PM 38.5 °F 33.4 °F 35.6 °F 89% 30.01 in 5.0 mi NE 6.9 mph - 0.04 in Rain Light Rain
8:15 PM 37.4 °F 32.8 °F 34.7 °F 90% 30.01 in 10.0 mi ENE 5.8 mph - N/A   Drizzle
8:35 PM 37.4 °F 32.8 °F 34.7 °F 90% 30.01 in 10.0 mi East 5.8 mph - 0.01 in Rain Light Rain
8:55 PM 37.6 °F - 34.9 °F 90% 30.00 in 10.0 mi Calm Calm - 0.01 in   Overcast
9:15 PM 37.4 °F - 34.9 °F 91% 30.01 in 10.0 mi Calm Calm - N/A   Overcast
9:35 PM 36.7 °F 34.1 °F 34.7 °F 93% 30.01 in 10.0 mi WNW 3.5 mph - N/A   Overcast
9:55 PM 37.0 °F 34.5 °F 35.1 °F 93% 30.01 in 10.0 mi North 3.5 mph - N/A   Overcast
10:15 PM 37.2 °F 34.7 °F 35.1 °F 92% 30.01 in 10.0 mi North 3.5 mph - N/A   Overcast
10:35 PM 36.9 °F - 34.9 °F 93% 30.01 in 10.0 mi Calm Calm - N/A   Overcast
10:55 PM 36.3 °F - 34.5 °F 93% 30.00 in 7.0 mi Calm Calm - N/A   Overcast
11:15 PM 35.8 °F - 34.0 °F 93% 30.00 in 10.0 mi Calm Calm - N/A   Overcast
11:35 PM 35.4 °F - 33.6 °F 93% 30.00 in 5.0 mi Calm Calm - N/A   Overcast
11:55 PM 35.6 °F - 34.0 °F 94% 29.99 in 10.0 mi Calm Calm - N/A   Overcast